Location: Unspecified
(0.0000°N, 0.0000°E)
Time: 18:18:40
(UTC+00:00)

deb Explorer IX - All Passes

Search period start: 18 April 2019 00:00
Search period end: 28 April 2019 00:00
Orbit: 537 x 1116 km, 38.8° (Epoch: 17 April)

Date Brightness Start Highest point End Pass type
(mag) Time Alt. Az. Time Alt. Az. Time Alt. Az.
18 Apr - 00:27:28 10° NW 00:31:33 85° NE 00:35:37 10° SE night (unlit)
18 Apr - 11:20:10 10° SSW 11:26:51 42° SE 11:33:44 10° ENE daylight
18 Apr - 13:07:28 10° WSW 13:14:23 44° NW 13:21:12 10° NNE daylight
19 Apr - 00:05:53 10° NW 00:10:01 90° SW 00:14:03 10° SE night (unlit)
19 Apr - 10:58:26 10° SSW 11:05:02 43° SE 11:11:58 10° ENE daylight
19 Apr - 12:45:44 10° WSW 12:52:34 42° NW 12:59:24 10° NNE daylight
19 Apr - 23:44:16 10° NW 23:48:29 85° SW 23:52:30 10° SE night (unlit)
20 Apr - 10:36:43 10° SSW 10:43:14 44° SE 10:50:11 10° ENE daylight
20 Apr - 12:24:01 10° WSW 12:30:45 41° NW 12:37:35 10° NNE daylight
20 Apr - 23:22:38 10° NW 23:26:56 80° SW 23:30:58 10° SE night (unlit)
21 Apr - 10:15:01 10° SSW 10:21:26 45° SE 10:28:22 10° ENE daylight
21 Apr - 12:02:21 10° WSW 12:08:56 40° NW 12:15:46 10° NNE daylight
21 Apr - 21:17:00 10° NNE 21:18:17 11° NE 21:19:33 10° NE night (unlit)
21 Apr - 23:00:59 10° NW 23:05:23 76° SW 23:09:26 10° SE night (unlit)
22 Apr - 09:53:20 10° SSW 09:59:39 46° SE 10:06:33 10° ENE daylight
22 Apr - 11:40:41 10° WSW 11:47:09 38° NW 11:53:54 10° NNE daylight
22 Apr - 20:54:47 10° N 20:56:43 12° NE 20:58:34 10° ENE visible
22 Apr - 22:39:19 10° NW 22:43:51 72° SW 22:47:56 10° SE night (unlit)
23 Apr - 09:31:41 10° SSW 09:37:51 47° SE 09:44:43 10° ENE daylight
23 Apr - 11:19:02 10° WSW 11:25:20 37° NW 11:32:02 10° NNE daylight
23 Apr - 20:32:42 10° N 20:35:08 13° NE 20:37:26 10° ENE visible
23 Apr - 22:17:37 10° NW 22:22:16 69° SW 22:26:26 10° SE night (unlit)
24 Apr - 09:10:03 10° SSW 09:16:05 48° SE 09:22:53 10° ENE daylight
24 Apr - 10:57:26 10° WSW 11:03:33 36° NW 11:10:09 10° NNE daylight
24 Apr - 20:10:39 10° N 20:13:32 15° NE 20:16:13 10° ENE visible
24 Apr - 21:55:55 10° NW 22:00:43 66° SW 22:04:55 10° SE night (unlit)
25 Apr - 08:48:26 10° SSW 08:54:20 49° SE 09:01:03 10° ENE daylight
25 Apr - 10:35:50 10° WSW 10:41:47 34° NW 10:48:15 10° NNE daylight
25 Apr - 19:48:37 10° N 19:51:56 16° NE 19:54:58 10° ENE visible
25 Apr - 21:34:11 10° WNW 21:39:08 63° SW 21:43:25 10° SE visible
26 Apr - 08:26:50 10° SSW 08:32:35 50° SE 08:39:12 10° ENE daylight
26 Apr - 10:14:16 10° W 10:20:01 32° NW 10:26:19 10° NNE daylight
26 Apr - 19:26:37 10° N 19:30:19 18° NE 19:33:41 10° ENE visible
26 Apr - 21:12:26 10° WNW 21:17:32 60° SW 21:21:56 10° SE visible
27 Apr - 08:05:15 10° SSW 08:10:51 51° SE 08:17:21 10° ENE daylight
27 Apr - 09:52:44 10° W 09:58:16 31° NW 10:04:24 10° NNE daylight
27 Apr - 19:04:37 10° N 19:08:42 19° NE 19:12:21 10° E visible
27 Apr - 20:50:40 10° WNW 20:55:56 58° SW 21:00:25 10° SE visible
